| time (UTC) | temp F | wind direction | speed MPH | gust MPH | rain 1hr in | rain 24hr in | rain mn in | humidity % | barometer mb |
| 20260506001713 | 63 | 202 | 1.0 | 3.0 | 0.00 | 0.00 | 0.00 | 1012.5 | |
| 20260506000713 | 63 | 225 | 1.0 | 2.0 | 0.00 | 0.00 | 0.00 | 1012.5 | |
| 20260505235413 | 64 | 225 | 3.0 | 5.0 | 0.00 | 0.00 | 0.00 | 1012.3 | |
| 20260505235013 | 63 | 202 | 5.0 | 8.0 | 0.00 | 0.00 | 0.00 | 1012.3 | |
| 20260505234313 | 63 | 225 | 5.0 | 6.0 | 0.00 | 0.00 | 0.00 | 1012.3 | |
| 20260505234213 | 63 | 225 | 4.0 | 6.0 | 0.00 | 0.00 | 0.00 | 1012.4 | |
| 20260505233813 | 62 | 270 | 3.0 | 4.0 | 0.00 | 0.00 | 0.00 | 1012.3 | |
| 20260505233413 | 62 | 225 | 3.0 | 4.0 | 0.00 | 0.00 | 0.00 | 1012.6 | |
| 20260505233013 | 62 | 225 | 3.0 | 6.0 | 0.00 | 0.00 | 0.00 | 1012.5 | |
| 20260505232613 | 62 | 225 | 5.0 | 6.0 | 0.00 | 0.00 | 0.00 | 1012.4 | |
| 20260505232513 | 62 | 202 | 3.0 | 5.0 | 0.00 | 0.00 | 0.00 | 1012.5 | |
| 20260505232113 | 62 | 202 | 2.0 | 3.0 | 0.00 | 0.00 | 0.00 | 1012.7 | |
| 20260505232013 | 62 | 225 | 1.0 | 2.0 | 0.00 | 0.00 | 0.00 | 1012.5 | |
| 20260505231913 | 62 | 180 | 1.0 | 2.0 | 0.00 | 0.00 | 0.00 | 1012.6 | |
| 20260505231813 | 62 | 202 | 2.0 | 4.0 | 0.00 | 0.00 | 0.00 | 1012.7 | |
| 20260505231713 | 62 | 225 | 2.0 | 3.0 | 0.00 | 0.00 | 0.00 | 1012.7 | |
| 20260505231313 | 62 | 225 | 4.0 | 5.0 | 0.00 | 0.00 | 0.00 | 1012.6 | |
| 20260505230613 | 62 | 225 | 3.0 | 5.0 | 0.00 | 0.00 | 0.00 | 1012.6 | |
| 20260505230513 | 62 | 270 | 4.0 | 7.0 | 0.00 | 0.00 | 0.00 | 1012.7 | |
| 20260505230413 | 62 | 225 | 3.0 | 5.0 | 0.00 | 0.00 | 0.00 | 1012.7 | |
| 20260505225713 | 62 | 247 | 2.0 | 3.0 | 0.00 | 0.00 | 0.00 | 1012.7 | |
| 20260505225613 | 62 | 247 | 2.0 | 3.0 | 0.00 | 0.00 | 0.00 | 1012.6 | |
| 20260505225213 | 62 | 202 | 2.0 | 3.0 | 0.00 | 0.00 | 0.00 | 1012.7 | |
| 20260505224813 | 62 | 225 | 3.0 | 4.0 | 0.00 | 0.00 | 0.00 | 1012.8 | |
| 20260505224413 | 62 | 247 | 4.0 | 6.0 | 0.00 | 0.00 | 0.00 | 1012.8 | |
| 20260505224313 | 62 | 225 | 4.0 | 6.0 | 0.00 | 0.00 | 0.00 | 1012.7 | |
| 20260505223913 | 62 | 225 | 2.0 | 3.0 | 0.00 | 0.00 | 0.00 | 1012.8 | |
| 20260505223813 | 62 | 202 | 2.0 | 3.0 | 0.00 | 0.00 | 0.00 | 1012.8 | |
| 20260505222813 | 63 | 202 | 3.0 | 5.0 | 0.00 | 0.00 | 0.00 | 1012.8 | |
| 20260505222713 | 63 | 225 | 5.0 | 6.0 | 0.00 | 0.00 | 0.00 | 1012.8 | |
| 20260505222313 | 63 | 225 | 5.0 | 6.0 | 0.00 | 0.00 | 0.00 | 1012.8 | |
| 20260505221913 | 62 | 270 | 2.0 | 4.0 | 0.00 | 0.00 | 0.00 | 1012.7 | |
| 20260505221513 | 62 | 225 | 3.0 | 4.0 | 0.00 | 0.00 | 0.00 | 1012.8 | |
| 20260505221413 | 62 | 247 | 3.0 | 5.0 | 0.00 | 0.00 | 0.00 | 1012.8 | |
| 20260505221313 | 62 | 225 | 4.0 | 4.0 | 0.00 | 0.00 | 0.00 | 1012.8 | |
| 20260505220913 | 62 | 225 | 1.0 | 2.0 | 0.00 | 0.00 | 0.00 | 1012.8 | |
| 20260505220813 | 62 | 225 | 2.0 | 3.0 | 0.00 | 0.00 | 0.00 | 1012.8 | |
| 20260505220113 | 62 | 202 | 6.0 | 7.0 | 0.00 | 0.00 | 0.00 | 1012.9 | |
| 20260505215413 | 61 | 202 | 4.0 | 7.0 | 0.00 | 0.00 | 0.00 | 1012.8 | |
| 20260505215013 | 61 | 180 | 5.0 | 7.0 | 0.00 | 0.00 | 0.00 | 1013.0 | |
| 20260505214913 | 61 | 202 | 2.0 | 4.0 | 0.00 | 0.00 | 0.00 | 1012.9 | |
| 20260505214514 | 61 | 135 | 2.0 | 4.0 | 0.00 | 0.00 | 0.00 | 1012.9 | |
| 20260505214413 | 61 | 225 | 4.0 | 6.0 | 0.00 | 0.00 | 0.00 | 1012.9 | |
| 20260505214013 | 61 | 225 | 5.0 | 6.0 | 0.00 | 0.00 | 0.00 | 1013.0 | |
| 20260505213613 | 61 | 225 | 4.0 | 6.0 | 0.00 | 0.00 | 0.00 | 1012.9 | |
| 20260505213513 | 61 | 225 | 6.0 | 7.0 | 0.00 | 0.00 | 0.00 | 1012.9 | |
| 20260505213413 | 61 | 225 | 5.0 | 7.0 | 0.00 | 0.00 | 0.00 | 1013.0 | |
| 20260505213314 | 61 | 247 | 6.0 | 8.0 | 0.00 | 0.00 | 0.00 | 1012.9 | |
| 20260505212914 | 61 | 225 | 3.0 | 4.0 | 0.00 | 0.00 | 0.00 | 1012.9 | |
| 20260505211613 | 61 | 225 | 2.0 | 5.0 | 0.00 | 0.00 | 0.00 | 1013.0 | |
| 20260505211513 | 61 | 225 | 4.0 | 5.0 | 0.00 | 0.00 | 0.00 | 1013.0 | |
| 20260505211413 | 61 | 225 | 3.0 | 5.0 | 0.00 | 0.00 | 0.00 | 1012.9 | |
| 20260505210413 | 61 | 225 | 2.0 | 5.0 | 0.00 | 0.00 | 0.00 | 1013.0 | |
| 20260505210313 | 61 | 292 | 2.0 | 4.0 | 0.00 | 0.00 | 0.00 | 1012.9 | |
| 20260505205013 | 61 | 225 | 3.0 | 7.0 | 0.00 | 0.00 | 0.00 | 1012.9 | |
| 20260505204614 | 61 | 225 | 2.0 | 3.0 | 0.00 | 0.00 | 0.00 | 1012.8 | |
| 20260505203913 | 62 | 270 | 2.0 | 4.0 | 0.00 | 0.00 | 0.00 | 1012.6 | |
| 20260505203813 | 62 | 270 | 3.0 | 4.0 | 0.00 | 0.00 | 0.00 | 1012.9 | |
| 20260505203713 | 62 | 225 | 4.0 | 7.0 | 0.00 | 0.00 | 0.00 | 1012.7 | |
| 20260505203313 | 62 | 225 | 3.0 | 6.0 | 0.00 | 0.00 | 0.00 | 1012.7 | |
| 20260505202913 | 63 | 180 | 2.0 | 4.0 | 0.00 | 0.00 | 0.00 | 1012.7 | |
| 20260505202213 | 63 | 225 | 3.0 | 5.0 | 0.00 | 0.00 | 0.00 | 1012.7 | |
| 20260505202113 | 63 | 225 | 2.0 | 5.0 | 0.00 | 0.00 | 0.00 | 1012.6 | |
| 20260505201413 | 64 | 157 | 2.0 | 3.0 | 0.00 | 0.00 | 0.00 | 1012.6 | |
| 20260505201313 | 64 | 180 | 3.0 | 4.0 | 0.00 | 0.00 | 0.00 | 1012.6 | |
| 20260505200613 | 64 | 225 | 4.0 | 6.0 | 0.00 | 0.00 | 0.00 | 1012.5 | |
| 20260505200213 | 64 | 225 | 4.0 | 7.0 | 0.00 | 0.00 | 0.00 | 1012.7 | |
| 20260505200113 | 64 | 225 | 3.0 | 8.0 | 0.00 | 0.00 | 0.00 | 1012.8 | |
| 20260505200013 | 64 | 202 | 4.0 | 8.0 | 0.00 | 0.00 | 0.00 | 1012.6 | |
| 20260505195613 | 64 | 180 | 3.0 | 5.0 | 0.00 | 0.00 | 0.00 | 1012.8 | |
| 20260505195513 | 64 | 202 | 4.0 | 6.0 | 0.00 | 0.00 | 0.00 | 1012.7 | |
| 20260505195113 | 63 | 202 | 5.0 | 7.0 | 0.00 | 0.00 | 0.00 | 1012.8 | |
| 20260505194713 | 63 | 180 | 1.0 | 2.0 | 0.00 | 0.00 | 0.00 | 1012.6 | |
| 20260505194613 | 64 | 180 | 3.0 | 6.0 | 0.00 | 0.00 | 0.00 | 1012.8 | |
| 20260505194213 | 65 | 135 | 2.0 | 3.0 | 0.00 | 0.00 | 0.00 | 1012.9 | |
| 20260505194113 | 65 | 135 | 3.0 | 7.0 | 0.00 | 0.00 | 0.00 | 1012.9 | |
| 20260505193113 | 67 | 202 | 3.0 | 5.0 | 0.00 | 0.00 | 0.00 | 1012.9 | |
| 20260505192113 | 65 | 202 | 1.0 | 2.0 | 0.00 | 0.00 | 0.00 | 1012.9 | |
| 20260505192013 | 65 | 202 | 1.0 | 2.0 | 0.00 | 0.00 | 0.00 | 1012.9 | |
| 20260505190413 | 64 | 225 | 2.0 | 4.0 | 0.00 | 0.00 | 0.00 | 1013.1 | |
| 20260505190013 | 64 | 202 | 3.0 | 4.0 | 0.00 | 0.00 | 0.00 | 1012.9 | |
| 20260505185613 | 64 | 45 | 1.0 | 3.0 | 0.00 | 0.00 | 0.00 | 1013.0 | |
| 20260505185513 | 64 | 0 | 4.0 | 6.0 | 0.00 | 0.00 | 0.00 | 1012.9 | |
| 20260505185413 | 64 | 270 | 4.0 | 5.0 | 0.00 | 0.00 | 0.00 | 1012.8 | |
| 20260505185013 | 65 | 202 | 3.0 | 4.0 | 0.00 | 0.00 | 0.00 | 1013.1 | |
| 20260505184613 | 65 | 180 | 1.0 | 2.0 | 0.00 | 0.00 | 0.00 | 1013.3 | |
| 20260505183613 | 64 | 225 | 3.0 | 5.0 | 0.00 | 0.00 | 0.00 | 1013.1 | |
| 20260505183513 | 63 | 225 | 5.0 | 7.0 | 0.00 | 0.00 | 0.00 | 1013.1 | |
| 20260505182813 | 63 | 157 | 2.0 | 4.0 | 0.00 | 0.00 | 0.00 | 1013.1 | |
| 20260505182413 | 63 | 202 | 1.0 | 3.0 | 0.00 | 0.00 | 0.00 | 1013.1 | |
| 20260505181113 | 61 | 270 | 3.0 | 4.0 | 0.00 | 0.00 | 0.00 | 1012.9 | |
| 20260505180713 | 61 | 202 | 2.0 | 4.0 | 0.00 | 0.00 | 0.00 | 1013.0 | |
| 20260505180613 | 61 | 180 | 1.0 | 2.0 | 0.00 | 0.00 | 0.00 | 1013.1 | |
| 20260505180213 | 61 | 180 | 2.0 | 4.0 | 0.00 | 0.00 | 0.00 | 1012.8 | |
| 20260505174613 | 63 | 225 | 2.0 | 4.0 | 0.00 | 0.00 | 0.00 | 1012.7 | |
| 20260505174513 | 63 | 180 | 4.0 | 5.0 | 0.00 | 0.00 | 0.00 | 1012.6 | |
| 20260505174413 | 63 | 225 | 4.0 | 5.0 | 0.00 | 0.00 | 0.00 | 1012.7 | |
| 20260505173713 | 62 | 202 | 0.0 | 1.0 | 0.00 | 0.00 | 0.00 | 1012.8 | |
| 20260505173313 | 62 | 0 | 1.0 | 2.0 | 0.00 | 0.00 | 0.00 | 1012.6 | |
| 20260505173213 | 62 | 270 | 1.0 | 2.0 | 0.00 | 0.00 | 0.00 | 1012.7 | |
| 20260505171614 | 64 | 112 | 2.0 | 3.0 | 0.00 | 0.00 | 0.00 | 1012.6 | |
| 20260505171213 | 62 | 90 | 1.0 | 2.0 | 0.00 | 0.00 | 0.00 | 1012.7 | |
| 20260505171113 | 62 | 202 | 1.0 | 2.0 | 0.00 | 0.00 | 0.00 | 1012.6 | |
| 20260505170713 | 62 | 270 | 1.0 | 3.0 | 0.00 | 0.00 | 0.00 | 1012.6 | |
| 20260505170313 | 62 | 202 | 2.0 | 5.0 | 0.00 | 0.00 | 0.00 | 1012.6 | |
| 20260505170213 | 62 | 157 | 1.0 | 3.0 | 0.00 | 0.00 | 0.00 | 1012.7 | |
| 20260505165513 | 62 | 202 | 2.0 | 4.0 | 0.00 | 0.00 | 0.00 | 1012.7 | |
| 20260505165113 | 61 | 180 | 1.0 | 2.0 | 0.00 | 0.00 | 0.00 | 1012.5 | |
| 20260505164113 | 61 | 225 | 0.0 | 1.0 | 0.00 | 0.00 | 0.00 | 1012.5 | |
| 20260505163413 | 60 | 112 | 1.0 | 2.0 | 0.00 | 0.00 | 0.00 | 1012.4 | |
| 20260505163013 | 60 | 202 | 3.0 | 6.0 | 0.00 | 0.00 | 0.00 | 1012.5 | |
| 20260505162313 | 61 | 225 | 3.0 | 6.0 | 0.00 | 0.00 | 0.00 | 1012.4 | |
| 20260505162213 | 61 | 270 | 3.0 | 4.0 | 0.00 | 0.00 | 0.00 | 1012.5 | |
| 20260505161813 | 61 | 90 | 2.0 | 3.0 | 0.00 | 0.00 | 0.00 | 1012.4 | |
| 20260505161413 | 60 | 180 | 2.0 | 4.0 | 0.00 | 0.00 | 0.00 | 1012.4 | |
| 20260505161313 | 61 | 202 | 3.0 | 6.0 | 0.00 | 0.00 | 0.00 | 1012.4 | |
| 20260505160913 | 60 | 157 | 2.0 | 2.0 | 0.00 | 0.00 | 0.00 | 1012.4 | |
| 20260505152713 | 57 | 135 | 2.0 | 2.0 | 0.00 | 0.00 | 0.00 | 1012.4 | |
| 20260505152613 | 56 | 135 | 1.0 | 2.0 | 0.00 | 0.00 | 0.00 | 1012.3 | |
| 20260505152513 | 56 | 135 | 1.0 | 1.0 | 0.00 | 0.00 | 0.00 | 1012.3 | |
| 20260505152413 | 57 | 135 | 2.0 | 3.0 | 0.00 | 0.00 | 0.00 | 1012.4 | |
| 20260505152314 | 56 | 225 | 1.0 | 2.0 | 0.00 | 0.00 | 0.00 | 1012.5 | |
| 20260505151913 | 55 | 45 | 0.0 | 1.0 | 0.00 | 0.00 | 0.00 | 1012.4 | |
| 20260505150914 | 56 | 225 | 3.0 | 4.0 | 0.00 | 0.00 | 0.00 | 1012.2 | |
| 20260505150514 | 58 | 247 | 1.0 | 2.0 | 0.00 | 0.00 | 0.00 | 1012.2 | |
| 20260505150413 | 57 | 45 | 0.0 | 0.0 | 0.00 | 0.00 | 0.00 | 1012.3 | |
| 20260505140613 | 52 | 315 | 1.0 | 1.0 | 0.00 | 0.00 | 0.00 | 1012.2 | |
| 20260505140213 | 51 | 315 | 0.0 | 0.0 | 0.00 | 0.00 | 0.00 | 1012.2 | |
| 20260505130213 | 49 | 135 | 0.0 | 0.0 | 0.00 | 0.00 | 0.00 | 1011.8 | |
| 20260505124713 | 49 | 135 | 0.0 | 0.0 | 0.00 | 0.00 | 0.00 | 1012.0 | |
| 20260505124314 | 50 | 135 | 0.0 | 0.0 | 0.00 | 0.00 | 0.00 | 1011.7 | |
| 20260505123913 | 50 | 135 | 0.0 | 0.0 | 0.00 | 0.00 | 0.00 | 1011.7 | |
| 20260505123513 | 50 | 135 | 0.0 | 0.0 | 0.00 | 0.00 | 0.00 | 1011.7 | |
| 20260505123414 | 50 | 135 | 0.0 | 0.0 | 0.00 | 0.00 | 0.00 | 1011.7 | |
| 20260505123013 | 50 | 135 | 0.0 | 0.0 | 0.00 | 0.00 | 0.00 | 1011.8 | |
| 20260505121413 | 51 | 135 | 0.0 | 0.0 | 0.00 | 0.00 | 0.00 | 1011.7 | |
| 20260505120714 | 51 | 135 | 0.0 | 0.0 | 0.00 | 0.00 | 0.00 | 1011.9 | |
| 20260505120613 | 51 | 135 | 0.0 | 0.0 | 0.00 | 0.00 | 0.00 | 1011.9 | |
| 20260505120213 | 51 | 135 | 0.0 | 0.0 | 0.00 | 0.00 | 0.00 | 1011.7 | |
| 20260505120113 | 51 | 135 | 0.0 | 0.0 | 0.00 | 0.00 | 0.00 | 1011.8 | |
| 20260505120013 | 51 | 135 | 0.0 | 0.0 | 0.00 | 0.00 | 0.00 | 1011.9 | |
| 20260505115913 | 52 | 112 | 0.0 | 0.0 | 0.00 | 0.00 | 0.00 | 1011.9 | |
| 20260505115813 | 52 | 157 | 0.0 | 0.0 | 0.00 | 0.00 | 0.00 | 1011.9 | |
| 20260505115713 | 52 | 157 | 0.0 | 0.0 | 0.00 | 0.00 | 0.00 | 1011.9 | |
| 20260505115313 | 52 | 157 | 0.0 | 0.0 | 0.00 | 0.00 | 0.00 | 1011.8 | |
| 20260505114613 | 52 | 135 | 0.0 | 0.0 | 0.00 | 0.00 | 0.00 | 1011.8 | |
| 20260505114515 | 52 | 135 | 0.0 | 0.0 | 0.00 | 0.00 | 0.00 | 1011.9 | |
| 20260505114113 | 52 | 337 | 0.0 | 0.0 | 0.00 | 0.00 | 0.00 | 1011.9 | |
| 20260505113713 | 52 | 337 | 0.0 | 0.0 | 0.00 | 0.00 | 0.00 | 1011.8 | |
| 20260505113313 | 52 | 337 | 0.0 | 0.0 | 0.00 | 0.00 | 0.00 | 1011.8 | |
| 20260505113213 | 52 | 337 | 0.0 | 0.0 | 0.00 | 0.00 | 0.00 | 1012.0 | |
| 20260505113113 | 52 | 337 | 0.0 | 0.0 | 0.00 | 0.00 | 0.00 | 1011.9 | |
| 20260505112113 | 52 | 337 | 0.0 | 0.0 | 0.00 | 0.00 | 0.00 | 1011.9 | |
| 20260505111713 | 52 | 337 | 0.0 | 0.0 | 0.00 | 0.00 | 0.00 | 1011.9 | |
| 20260505111313 | 52 | 337 | 0.0 | 0.0 | 0.00 | 0.00 | 0.00 | 1011.9 | |
| 20260505110913 | 51 | 337 | 0.0 | 0.0 | 0.00 | 0.00 | 0.00 | 1011.9 | |
| 20260505110513 | 51 | 337 | 0.0 | 0.0 | 0.00 | 0.00 | 0.00 | 1012.0 | |
| 20260505101613 | 52 | 202 | 0.0 | 1.0 | 0.00 | 0.00 | 0.00 | 1011.9 | |
| 20260505095713 | 52 | 180 | 0.0 | 1.0 | 0.00 | 0.00 | 0.00 | 1012.1 | |
| 20260505095613 | 52 | 180 | 2.0 | 3.0 | 0.00 | 0.00 | 0.00 | 1012.3 | |
| 20260505095513 | 52 | 247 | 2.0 | 4.0 | 0.00 | 0.00 | 0.00 | 1012.4 | |
| 20260505095413 | 52 | 202 | 2.0 | 3.0 | 0.00 | 0.00 | 0.00 | 1012.3 | |
| 20260505094713 | 52 | 180 | 2.0 | 2.0 | 0.00 | 0.00 | 0.00 | 1012.4 | |
| 20260505094013 | 52 | 225 | 2.0 | 2.0 | 0.00 | 0.00 | 0.00 | 1012.2 | |
| 20260505093913 | 52 | 225 | 1.0 | 2.0 | 0.00 | 0.00 | 0.00 | 1012.1 | |
| 20260505093513 | 52 | 202 | 2.0 | 3.0 | 0.00 | 0.00 | 0.00 | 1012.3 | |
| 20260505093414 | 52 | 247 | 1.0 | 2.0 | 0.00 | 0.00 | 0.00 | 1012.2 | |
| 20260505092113 | 52 | 225 | 0.0 | 1.0 | 0.00 | 0.00 | 0.00 | 1012.5 | |
| 20260505092015 | 53 | 225 | 1.0 | 2.0 | 0.00 | 0.00 | 0.00 | 1012.6 | |
| 20260505091613 | 53 | 225 | 0.0 | 1.0 | 0.00 | 0.00 | 0.00 | 1012.6 | |
| 20260505091513 | 53 | 180 | 1.0 | 2.0 | 0.00 | 0.00 | 0.00 | 1012.5 | |
| 20260505091413 | 53 | 202 | 1.0 | 2.0 | 0.00 | 0.00 | 0.00 | 1012.6 | |
| 20260505091313 | 53 | 225 | 1.0 | 3.0 | 0.00 | 0.00 | 0.00 | 1012.5 | |
| 20260505091213 | 53 | 157 | 1.0 | 1.0 | 0.00 | 0.00 | 0.00 | 1012.5 | |
| 20260505090813 | 53 | 202 | 1.0 | 1.0 | 0.00 | 0.00 | 0.00 | 1012.5 | |
| 20260505090413 | 53 | 135 | 1.0 | 4.0 | 0.00 | 0.00 | 0.00 | 1012.6 | |
| 20260505090015 | 53 | 225 | 1.0 | 1.0 | 0.00 | 0.00 | 0.00 | 1012.7 | |
| 20260505085916 | 53 | 202 | 1.0 | 2.0 | 0.00 | 0.00 | 0.00 | 1012.7 | |
| 20260505085513 | 53 | 135 | 1.0 | 1.0 | 0.00 | 0.00 | 0.00 | 1012.6 | |
| 20260505085414 | 53 | 157 | 2.0 | 3.0 | 0.00 | 0.00 | 0.00 | 1012.7 | |
| 20260505085313 | 53 | 135 | 3.0 | 5.0 | 0.00 | 0.00 | 0.00 | 1012.6 | |
| 20260505084613 | 54 | 202 | 1.0 | 3.0 | 0.00 | 0.00 | 0.00 | 1012.7 | |
| 20260505084513 | 54 | 202 | 1.0 | 2.0 | 0.00 | 0.00 | 0.00 | 1012.8 | |
| 20260505083813 | 54 | 157 | 1.0 | 2.0 | 0.00 | 0.00 | 0.00 | 1013.0 | |
| 20260505082813 | 54 | 202 | 1.0 | 2.0 | 0.00 | 0.00 | 0.00 | 1012.9 | |
| 20260505082714 | 54 | 180 | 1.0 | 2.0 | 0.00 | 0.00 | 0.00 | 1012.9 | |
| 20260505082313 | 54 | 157 | 1.0 | 2.0 | 0.00 | 0.00 | 0.00 | 1012.7 | |
| 20260505082213 | 54 | 202 | 0.0 | 1.0 | 0.00 | 0.00 | 0.00 | 1012.7 | |
| 20260505081813 | 54 | 225 | 1.0 | 2.0 | 0.00 | 0.00 | 0.00 | 1012.7 | |
| 20260505081413 | 54 | 180 | 0.0 | 1.0 | 0.00 | 0.00 | 0.00 | 1012.7 | |
| 20260505081013 | 54 | 180 | 0.0 | 1.0 | 0.00 | 0.00 | 0.00 | 1012.8 | |
| 20260505080913 | 54 | 202 | 0.0 | 1.0 | 0.00 | 0.00 | 0.00 | 1012.8 | |
| 20260505080813 | 54 | 180 | 1.0 | 2.0 | 0.00 | 0.00 | 0.00 | 1012.9 | |
| 20260505080713 | 54 | 202 | 2.0 | 3.0 | 0.00 | 0.00 | 0.00 | 1012.9 | |
| 20260505080613 | 54 | 202 | 1.0 | 1.0 | 0.00 | 0.00 | 0.00 | 1012.7 | |
| 20260505080513 | 54 | 225 | 0.0 | 0.0 | 0.00 | 0.00 | 0.00 | 1013.0 | |
| 20260505080413 | 54 | 180 | 0.0 | 1.0 | 0.00 | 0.00 | 0.00 | 1012.9 | |
| 20260505080313 | 54 | 225 | 1.0 | 2.0 | 0.00 | 0.00 | 0.00 | 1013.0 | |
| 20260505080213 | 54 | 225 | 0.0 | 1.0 | 0.00 | 0.00 | 0.00 | 1013.0 | |
| 20260505080113 | 54 | 202 | 0.0 | 0.0 | 0.00 | 0.00 | 0.00 | 1012.9 | |
| 20260505080013 | 54 | 202 | 0.0 | 0.0 | 0.00 | 0.00 | 0.00 | 1013.0 | |
| 20260505075913 | 54 | 202 | 0.0 | 0.0 | 0.00 | 0.00 | 0.00 | 1012.9 | |
| 20260505075813 | 54 | 180 | 0.0 | 1.0 | 0.00 | 0.00 | 0.00 | 1012.9 | |
| 20260505075713 | 54 | 202 | 0.0 | 1.0 | 0.00 | 0.00 | 0.00 | 1012.9 | |
| 20260505074713 | 55 | 202 | 1.0 | 2.0 | 0.00 | 0.00 | 0.00 | 1013.1 | |
| 20260505074613 | 55 | 202 | 1.0 | 2.0 | 0.00 | 0.00 | 0.00 | 1013.0 | |
| 20260505074514 | 54 | 202 | 0.0 | 0.0 | 0.00 | 0.00 | 0.00 | 1012.9 | |
| 20260505074113 | 54 | 202 | 0.0 | 0.0 | 0.00 | 0.00 | 0.00 | 1013.0 | |
| 20260505074013 | 55 | 202 | 0.0 | 0.0 | 0.00 | 0.00 | 0.00 | 1013.1 | |
| 20260505070613 | 55 | 270 | 0.0 | 0.0 | 0.00 | 0.00 | 0.00 | 1013.1 | |
| 20260505070513 | 55 | 270 | 0.0 | 0.0 | 0.00 | 0.00 | 0.00 | 1012.9 | |
| 20260505070413 | 55 | 270 | 0.0 | 0.0 | 0.00 | 0.00 | 0.00 | 1013.0 | |
| 20260505070313 | 55 | 270 | 0.0 | 0.0 | 0.00 | 0.00 | 0.00 | 1013.0 | |
| 20260505070213 | 55 | 270 | 0.0 | 0.0 | 0.00 | 0.00 | 0.00 | 1013.2 | |
| 20260505065813 | 55 | 270 | 0.0 | 0.0 | 0.00 | 0.00 | 0.00 | 1013.1 | |
| 20260505065713 | 55 | 225 | 1.0 | 2.0 | 0.00 | 0.00 | 0.00 | 1013.1 | |
| 20260505065313 | 55 | 225 | 0.0 | 0.0 | 0.00 | 0.00 | 0.00 | 1013.2 | |
| 20260505064913 | 55 | 202 | 0.0 | 0.0 | 0.00 | 0.00 | 0.00 | 1013.2 | |
| 20260505064813 | 55 | 202 | 0.0 | 0.0 | 0.00 | 0.00 | 0.00 | 1013.2 | |
| 20260505064713 | 55 | 202 | 0.0 | 0.0 | 0.00 | 0.00 | 0.00 | 1013.1 | |
| 20260505064314 | 55 | 180 | 0.0 | 0.0 | 0.00 | 0.00 | 0.00 | 1013.4 | |
| 20260505063013 | 56 | 180 | 0.0 | 0.0 | 0.00 | 0.00 | 0.00 | 1013.4 | |
| 20260505062913 | 56 | 180 | 0.0 | 0.0 | 0.00 | 0.00 | 0.00 | 1013.4 | |
| 20260505062813 | 56 | 112 | 0.0 | 1.0 | 0.00 | 0.00 | 0.00 | 1013.4 | |
| 20260505062713 | 56 | 202 | 0.0 | 0.0 | 0.00 | 0.00 | 0.00 | 1013.3 | |
| 20260505062613 | 56 | 225 | 0.0 | 0.0 | 0.00 | 0.00 | 0.00 | 1013.3 | |
| 20260505062213 | 56 | 112 | 1.0 | 2.0 | 0.00 | 0.00 | 0.00 | 1013.3 | |
| 20260505061813 | 56 | 135 | 0.0 | 1.0 | 0.00 | 0.00 | 0.00 | 1013.3 | |
| 20260505061414 | 56 | 202 | 0.0 | 0.0 | 0.00 | 0.00 | 0.00 | 1013.3 | |
| 20260505061313 | 56 | 180 | 0.0 | 0.0 | 0.00 | 0.00 | 0.00 | 1013.3 | |
| 20260505061213 | 56 | 157 | 0.0 | 0.0 | 0.00 | 0.00 | 0.00 | 1013.3 | |
| 20260505061113 | 56 | 180 | 0.0 | 2.0 | 0.00 | 0.00 | 0.00 | 1013.3 | |
| 20260505060713 | 56 | 202 | 0.0 | 0.0 | 0.00 | 0.00 | 0.00 | 1013.3 | |
| 20260505060613 | 56 | 202 | 0.0 | 0.0 | 0.00 | 0.00 | 0.00 | 1013.5 | |
| 20260505055613 | 56 | 202 | 1.0 | 2.0 | 0.00 | 0.00 | 0.00 | 1013.4 | |
| 20260505055513 | 56 | 180 | 0.0 | 1.0 | 0.00 | 0.00 | 0.00 | 1013.4 | |
| 20260505055113 | 56 | 225 | 0.0 | 1.0 | 0.00 | 0.00 | 0.00 | 1013.4 | |
| 20260505055013 | 56 | 225 | 1.0 | 2.0 | 0.00 | 0.00 | 0.00 | 1013.4 | |
| 20260505054913 | 56 | 202 | 0.0 | 2.0 | 0.00 | 0.00 | 0.00 | 1013.4 | |
| 20260505054513 | 56 | 202 | 1.0 | 2.0 | 0.00 | 0.00 | 0.00 | 1013.4 | |
| 20260505054413 | 56 | 202 | 1.0 | 2.0 | 0.00 | 0.00 | 0.00 | 1013.3 | |
| 20260505053413 | 56 | 202 | 0.0 | 0.0 | 0.00 | 0.00 | 0.00 | 1013.5 | |
| 20260505053013 | 56 | 225 | 2.0 | 2.0 | 0.00 | 0.00 | 0.00 | 1013.3 | |
| 20260505052913 | 56 | 225 | 2.0 | 2.0 | 0.00 | 0.00 | 0.00 | 1013.5 | |
| 20260505052813 | 56 | 225 | 2.0 | 3.0 | 0.00 | 0.00 | 0.00 | 1013.4 | |
| 20260505052714 | 56 | 225 | 2.0 | 3.0 | 0.00 | 0.00 | 0.00 | 1013.5 | |
| 20260505052313 | 56 | 292 | 1.0 | 2.0 | 0.00 | 0.00 | 0.00 | 1013.4 | |
| 20260505052213 | 56 | 225 | 2.0 | 2.0 | 0.00 | 0.00 | 0.00 | 1013.5 | |
| 20260505051814 | 56 | 202 | 0.0 | 1.0 | 0.00 | 0.00 | 0.00 | 1013.6 | |
| 20260505051715 | 56 | 180 | 0.0 | 0.0 | 0.00 | 0.00 | 0.00 | 1013.7 | |
| 20260505051313 | 57 | 202 | 1.0 | 2.0 | 0.00 | 0.00 | 0.00 | 1013.7 | |
| 20260505051213 | 57 | 180 | 1.0 | 2.0 | 0.00 | 0.00 | 0.00 | 1013.6 | |
| 20260505050813 | 57 | 225 | 3.0 | 4.0 | 0.00 | 0.00 | 0.00 | 1013.8 | |
| 20260505050113 | 57 | 247 | 1.0 | 2.0 | 0.00 | 0.00 | 0.00 | 1013.6 | |
| 20260505041414 | 57 | 202 | 4.0 | 5.0 | 0.00 | 0.00 | 0.00 | 1013.6 | |
| 20260505035513 | 58 | 202 | 3.0 | 4.0 | 0.00 | 0.00 | 0.00 | 1013.6 | |
| 20260505034213 | 58 | 225 | 3.0 | 4.0 | 0.00 | 0.00 | 0.00 | 1013.4 | |
| 20260505032913 | 58 | 247 | 3.0 | 5.0 | 0.00 | 0.00 | 0.00 | 1013.4 | |
| 20260505032814 | 58 | 225 | 4.0 | 6.0 | 0.00 | 0.00 | 0.00 | 1013.4 | |
| 20260505032113 | 58 | 247 | 3.0 | 5.0 | 0.00 | 0.00 | 0.00 | 1013.2 | |
| 20260505032013 | 58 | 225 | 4.0 | 5.0 | 0.00 | 0.00 | 0.00 | 1013.4 | |
| 20260505031613 | 58 | 225 | 4.0 | 6.0 | 0.00 | 0.00 | 0.00 | 1013.2 | |
| 20260505031513 | 58 | 225 | 4.0 | 5.0 | 0.00 | 0.00 | 0.00 | 1013.4 | |
| 20260505031114 | 58 | 202 | 2.0 | 4.0 | 0.00 | 0.00 | 0.00 | 1013.2 | |
| 20260505031013 | 58 | 157 | 3.0 | 7.0 | 0.00 | 0.00 | 0.00 | 1013.3 | |
| 20260505030913 | 58 | 157 | 3.0 | 5.0 | 0.00 | 0.00 | 0.00 | 1013.2 | |
| 20260505030813 | 58 | 225 | 4.0 | 6.0 | 0.00 | 0.00 | 0.00 | 1013.2 | |
| 20260505030114 | 59 | 202 | 4.0 | 6.0 | 0.00 | 0.00 | 0.00 | 1013.0 | |
| 20260505025413 | 59 | 225 | 2.0 | 5.0 | 0.00 | 0.00 | 0.00 | 1013.2 | |
| 20260505025313 | 59 | 225 | 3.0 | 5.0 | 0.00 | 0.00 | 0.00 | 1013.1 | |
| 20260505024913 | 59 | 225 | 3.0 | 5.0 | 0.00 | 0.00 | 0.00 | 1013.1 | |
| 20260505022413 | 59 | 225 | 3.0 | 4.0 | 0.00 | 0.00 | 0.00 | 1013.0 | |
| 20260505021414 | 60 | 225 | 2.0 | 5.0 | 0.00 | 0.00 | 0.00 | 1013.0 | |
| 20260505021113 | 60 | 315 | 3.0 | 7.0 | 0.00 | 0.00 | 0.00 | 1012.9 | |
| 20260505020713 | 60 | 270 | 3.0 | 6.0 | 0.00 | 0.00 | 0.00 | 1012.8 | |
| 20260505020613 | 60 | 292 | 3.0 | 6.0 | 0.00 | 0.00 | 0.00 | 1012.8 | |
| 20260505020513 | 60 | 247 | 2.0 | 4.0 | 0.00 | 0.00 | 0.00 | 1012.8 | |
| 20260505020413 | 60 | 270 | 3.0 | 4.0 | 0.00 | 0.00 | 0.00 | 1012.8 | |
| 20260505020313 | 60 | 270 | 2.0 | 4.0 | 0.00 | 0.00 | 0.00 | 1012.8 | |
| 20260505015913 | 60 | 202 | 2.0 | 5.0 | 0.00 | 0.00 | 0.00 | 1012.8 | |
| 20260505015813 | 60 | 225 | 4.0 | 6.0 | 0.00 | 0.00 | 0.00 | 1012.8 | |
| 20260505015113 | 60 | 225 | 4.0 | 6.0 | 0.00 | 0.00 | 0.00 | 1012.9 | |
| 20260505014113 | 60 | 180 | 6.0 | 9.0 | 0.00 | 0.00 | 0.00 | 1012.9 | |
| 20260505014013 | 60 | 225 | 4.0 | 9.0 | 0.00 | 0.00 | 0.00 | 1013.0 | |
| 20260505013313 | 61 | 225 | 5.0 | 7.0 | 0.00 | 0.00 | 0.00 | 1013.0 | |
| 20260505012913 | 61 | 180 | 6.0 | 8.0 | 0.00 | 0.00 | 0.00 | 1012.8 | |
| 20260505012813 | 61 | 225 | 6.0 | 10.0 | 0.00 | 0.00 | 0.00 | 1012.8 | |
| 20260505012713 | 61 | 202 | 5.0 | 7.0 | 0.00 | 0.00 | 0.00 | 1013.0 | |
| 20260505012613 | 61 | 202 | 6.0 | 9.0 | 0.00 | 0.00 | 0.00 | 1012.8 | |
| 20260505012514 | 61 | 225 | 6.0 | 9.0 | 0.00 | 0.00 | 0.00 | 1013.0 | |
| 20260505012413 | 61 | 225 | 7.0 | 10.0 | 0.00 | 0.00 | 0.00 | 1012.9 | |
| 20260505011413 | 62 | 247 | 5.0 | 7.0 | 0.00 | 0.00 | 0.00 | 1012.8 | |
| 20260505011014 | 62 | 225 | 6.0 | 10.0 | 0.00 | 0.00 | 0.00 | 1012.8 | |
| 20260505010313 | 62 | 225 | 7.0 | 9.0 | 0.00 | 0.00 | 0.00 | 1012.7 | |
| 20260505010213 | 62 | 180 | 6.0 | 10.0 | 0.00 | 0.00 | 0.00 | 1012.9 | |
| 20260505010113 | 63 | 225 | 6.0 | 8.0 | 0.00 | 0.00 | 0.00 | 1012.6 | |
| 20260505010013 | 63 | 225 | 6.0 | 9.0 | 0.00 | 0.00 | 0.00 | 1013.0 | |
| 20260505005913 | 63 | 247 | 5.0 | 6.0 | 0.00 | 0.00 | 0.00 | 1012.7 | |
| 20260505005213 | 63 | 202 | 5.0 | 8.0 | 0.00 | 0.00 | 0.00 | 1012.7 | |
| 20260505005113 | 63 | 247 | 5.0 | 8.0 | 0.00 | 0.00 | 0.00 | 1012.8 | |
| 20260505004713 | 63 | 225 | 2.0 | 5.0 | 0.00 | 0.00 | 0.00 | 1012.8 | |
| 20260505004614 | 63 | 180 | 5.0 | 8.0 | 0.00 | 0.00 | 0.00 | 1012.6 | |
| 20260505004213 | 63 | 247 | 4.0 | 7.0 | 0.00 | 0.00 | 0.00 | 1012.8 | |
| 20260505004113 | 63 | 202 | 5.0 | 6.0 | 0.00 | 0.00 | 0.00 | 1012.9 | |
| 20260505004013 | 63 | 225 | 7.0 | 10.0 | 0.00 | 0.00 | 0.00 | 1012.9 | |
| 20260505003914 | 63 | 202 | 8.0 | 11.0 | 0.00 | 0.00 | 0.00 | 1013.0 | |
| 20260505003213 | 63 | 202 | 3.0 | 5.0 | 0.00 | 0.00 | 0.00 | 1012.9 | |
| 20260505002813 | 64 | 180 | 6.0 | 9.0 | 0.00 | 0.00 | 0.00 | 1012.8 | |
| 20260505002413 | 64 | 247 | 8.0 | 13.0 | 0.00 | 0.00 | 0.00 | 1012.8 | |
| 20260505002313 | 64 | 225 | 6.0 | 11.0 | 0.00 | 0.00 | 0.00 | 1012.8 | |
| 20260505001913 | 64 | 225 | 6.0 | 8.0 | 0.00 | 0.00 | 0.00 | 1012.8 | |
| 20260505001813 | 65 | 202 | 7.0 | 9.0 | 0.00 | 0.00 | 0.00 | 1012.8 |